Time,TemperatureF,DewpointF,PressureIn,WindDirection,WindDirectionDegrees,WindSpeedMPH,WindSpeedGustMPH,Humidity,HourlyPrecipIn,Conditions,Clouds,dailyrainin,SoftwareType,DateUTC
2013-03-22 00:05:00,53.5,44.0,29.98,WNW,290,0.0,0.0,69,0.00,,,0.00,weatherlink.com 1.10,2013-03-22 04:05:00,
2013-03-22 00:20:00,53.0,43.0,29.98,WNW,290,0.0,0.0,70,0.00,,,0.00,weatherlink.com 1.10,2013-03-22 04:20:00,
2013-03-22 00:35:00,53.4,45.0,29.99,West,278,0.0,1.0,73,0.00,,,0.00,weatherlink.com 1.10,2013-03-22 04:35:00,
2013-03-22 00:50:00,53.1,44.0,29.98,West,280,0.0,1.0,72,0.00,,,0.00,weatherlink.com 1.10,2013-03-22 04:50:00,
2013-03-22 01:05:00,52.7,44.0,29.98,West,281,0.0,1.0,73,0.00,,,0.00,weatherlink.com 1.10,2013-03-22 05:05:00,
2013-03-22 01:20:00,52.3,44.0,29.98,WNW,292,0.0,0.0,73,0.00,,,0.00,weatherlink.com 1.10,2013-03-22 05:20:00,
2013-03-22 01:35:00,51.9,44.0,29.97,WNW,290,0.0,1.0,74,0.00,,,0.00,weatherlink.com 1.10,2013-03-22 05:35:00,
2013-03-22 01:50:00,51.5,44.0,29.96,WNW,290,0.0,0.0,75,0.00,,,0.00,weatherlink.com 1.10,2013-03-22 05:50:00,
2013-03-22 02:05:00,51.3,44.0,29.96,WNW,290,0.0,1.0,75,0.00,,,0.00,weatherlink.com 1.10,2013-03-22 06:05:00,
2013-03-22 02:20:00,50.8,43.0,29.96,WNW,290,0.0,0.0,75,0.00,,,0.00,weatherlink.com 1.10,2013-03-22 06:20:00,
2013-03-22 02:35:00,49.9,43.0,29.96,WNW,290,0.0,0.0,78,0.00,,,0.00,weatherlink.com 1.10,2013-03-22 06:35:00,
2013-03-22 02:50:00,49.3,43.0,29.96,WNW,290,0.0,0.0,80,0.00,,,0.00,weatherlink.com 1.10,2013-03-22 06:50:00,
2013-03-22 03:05:00,48.6,43.0,29.95,WNW,290,0.0,0.0,80,0.00,,,0.00,weatherlink.com 1.10,2013-03-22 07:05:00,
2013-03-22 03:20:00,48.1,42.0,29.94,WNW,290,0.0,0.0,80,0.00,,,0.00,weatherlink.com 1.10,2013-03-22 07:20:00,
2013-03-22 03:35:00,48.2,42.0,29.95,WNW,290,0.0,0.0,79,0.00,,,0.00,weatherlink.com 1.10,2013-03-22 07:35:00,
2013-03-22 03:50:00,48.2,42.0,29.95,WNW,290,0.0,0.0,79,0.00,,,0.00,weatherlink.com 1.10,2013-03-22 07:50:00,
2013-03-22 04:05:00,47.8,42.0,29.95,WNW,290,0.0,0.0,79,0.00,,,0.00,weatherlink.com 1.10,2013-03-22 08:05:00,
2013-03-22 04:20:00,47.5,42.0,29.95,WNW,290,0.0,0.0,80,0.00,,,0.00,weatherlink.com 1.10,2013-03-22 08:20:00,
2013-03-22 04:35:00,47.3,41.0,29.95,WNW,290,0.0,0.0,79,0.00,,,0.00,weatherlink.com 1.10,2013-03-22 08:35:00,
2013-03-22 04:50:00,47.2,41.0,29.95,WNW,290,0.0,0.0,79,0.00,,,0.00,weatherlink.com 1.10,2013-03-22 08:50:00,
2013-03-22 05:05:00,47.2,41.0,29.95,WNW,290,0.0,0.0,79,0.00,,,0.00,weatherlink.com 1.10,2013-03-22 09:05:00,
2013-03-22 05:20:00,47.2,41.0,29.95,WNW,290,0.0,0.0,80,0.00,,,0.00,weatherlink.com 1.10,2013-03-22 09:20:00,
2013-03-22 05:35:00,46.9,41.0,29.96,WNW,290,0.0,0.0,80,0.00,,,0.00,weatherlink.com 1.10,2013-03-22 09:35:00,
2013-03-22 05:50:00,46.8,41.0,29.96,WNW,290,0.0,0.0,81,0.00,,,0.00,weatherlink.com 1.10,2013-03-22 09:50:00,
2013-03-22 06:05:00,46.6,41.0,29.98,WNW,290,0.0,0.0,81,0.00,,,0.00,weatherlink.com 1.10,2013-03-22 10:05:00,
2013-03-22 06:20:00,46.4,41.0,29.98,WNW,290,0.0,0.0,82,0.00,,,0.00,weatherlink.com 1.10,2013-03-22 10:20:00,
2013-03-22 06:36:00,46.1,41.0,30.00,WNW,290,0.0,0.0,82,0.00,,,0.00,weatherlink.com 1.10,2013-03-22 10:36:00,
2013-03-22 06:51:00,46.0,41.0,30.01,WNW,290,0.0,0.0,81,0.00,,,0.00,weatherlink.com 1.10,2013-03-22 10:51:00,
2013-03-22 07:06:00,46.3,40.0,30.02,WNW,290,0.0,0.0,80,0.00,,,0.00,weatherlink.com 1.10,2013-03-22 11:06:00,
2013-03-22 07:21:00,46.4,41.0,30.02,WNW,290,0.0,0.0,80,0.00,,,0.00,weatherlink.com 1.10,2013-03-22 11:21:00,
2013-03-22 07:36:00,46.1,41.0,30.02,WNW,290,0.0,0.0,81,0.00,,,0.00,weatherlink.com 1.10,2013-03-22 11:36:00,
2013-03-22 07:51:00,45.8,40.0,30.03,WNW,290,0.0,0.0,80,0.00,,,0.00,weatherlink.com 1.10,2013-03-22 11:51:00,
2013-03-22 09:21:00,54.7,47.0,30.04,NE,49,0.0,5.0,74,0.00,,,0.00,weatherlink.com 1.10,2013-03-22 13:21:00,
2013-03-22 09:36:00,57.3,46.0,30.04,NNE,32,1.0,7.0,67,0.00,,,0.00,weatherlink.com 1.10,2013-03-22 13:36:00,
2013-03-22 09:51:00,59.5,45.0,30.05,NNE,32,0.0,7.0,60,0.00,,,0.00,weatherlink.com 1.10,2013-03-22 13:51:00,
2013-03-22 10:06:00,61.4,46.0,30.05,ENE,61,0.0,5.0,57,0.00,,,0.00,weatherlink.com 1.10,2013-03-22 14:06:00,
2013-03-22 10:21:00,61.7,46.0,30.05,ENE,63,1.0,8.0,56,0.00,,,0.00,weatherlink.com 1.10,2013-03-22 14:21:00,
2013-03-22 10:36:00,62.5,46.0,30.04,SE,130,1.0,9.0,55,0.00,,,0.00,weatherlink.com 1.10,2013-03-22 14:36:00,
2013-03-22 10:51:00,62.7,45.0,30.05,SE,126,3.0,12.0,53,0.00,,,0.00,weatherlink.com 1.10,2013-03-22 14:51:00,
2013-03-22 11:06:00,63.5,43.0,30.05,SE,128,4.0,11.0,48,0.00,,,0.00,weatherlink.com 1.10,2013-03-22 15:06:00,
2013-03-22 11:21:00,63.9,45.0,30.05,ENE,71,1.0,15.0,50,0.00,,,0.00,weatherlink.com 1.10,2013-03-22 15:21:00,
2013-03-22 11:36:00,64.8,42.0,30.05,NNE,12,1.0,15.0,44,0.00,,,0.00,weatherlink.com 1.10,2013-03-22 15:36:00,
2013-03-22 11:51:00,65.2,45.0,30.05,ESE,111,3.0,12.0,48,0.00,,,0.00,weatherlink.com 1.10,2013-03-22 15:51:00,
2013-03-22 12:06:00,65.5,45.0,30.05,ESE,119,4.0,9.0,48,0.00,,,0.00,weatherlink.com 1.10,2013-03-22 16:06:00,
2013-03-22 12:21:00,66.3,44.0,30.04,SE,128,5.0,13.0,44,0.00,,,0.00,weatherlink.com 1.10,2013-03-22 16:21:00,
2013-03-22 12:36:00,66.8,43.0,30.03,ESE,116,9.0,12.0,43,0.00,,,0.00,weatherlink.com 1.10,2013-03-22 16:36:00,
2013-03-22 12:51:00,67.2,43.0,30.01,ESE,119,4.0,11.0,41,0.00,,,0.00,weatherlink.com 1.10,2013-03-22 16:51:00,
2013-03-22 13:06:00,67.6,44.0,30.02,ESE,113,9.0,11.0,42,0.00,,,0.00,weatherlink.com 1.10,2013-03-22 17:06:00,
2013-03-22 13:22:00,68.3,47.0,30.01,ESE,105,9.0,11.0,46,0.00,,,0.00,weatherlink.com 1.10,2013-03-22 17:22:00,
2013-03-22 13:37:00,68.5,44.0,30.00,SE,134,2.0,10.0,42,0.00,,,0.00,weatherlink.com 1.10,2013-03-22 17:37:00,
2013-03-22 13:52:00,69.2,46.0,30.00,ESE,115,4.0,9.0,43,0.00,,,0.00,weatherlink.com 1.10,2013-03-22 17:52:00,
2013-03-22 14:07:00,69.9,46.0,29.99,ESE,115,0.0,5.0,42,0.00,,,0.00,weatherlink.com 1.10,2013-03-22 18:07:00,
2013-03-22 14:22:00,70.8,48.0,29.99,ESE,119,3.0,7.0,45,0.00,,,0.00,weatherlink.com 1.10,2013-03-22 18:22:00,
2013-03-22 14:37:00,71.0,49.0,29.98,SW,227,0.0,4.0,46,0.00,,,0.00,weatherlink.com 1.10,2013-03-22 18:37:00,
2013-03-22 14:52:00,71.0,51.0,29.97,SW,224,4.0,4.0,49,0.00,,,0.00,weatherlink.com 1.10,2013-03-22 18:52:00,
2013-03-22 15:07:00,71.3,49.0,29.97,SW,235,0.0,5.0,45,0.00,,,0.00,weatherlink.com 1.10,2013-03-22 19:07:00,
2013-03-22 15:22:00,72.1,49.0,29.95,SSW,209,5.0,7.0,44,0.00,,,0.00,weatherlink.com 1.10,2013-03-22 19:22:00,
2013-03-22 15:37:00,72.6,47.0,29.94,ESE,122,3.0,6.0,40,0.00,,,0.00,weatherlink.com 1.10,2013-03-22 19:37:00,
2013-03-22 15:52:00,73.1,47.0,29.95,SSE,156,9.0,13.0,40,0.00,,,0.00,weatherlink.com 1.10,2013-03-22 19:52:00,
2013-03-22 16:07:00,73.5,50.0,29.94,ESE,117,7.0,11.0,43,0.00,,,0.00,weatherlink.com 1.10,2013-03-22 20:07:00,
2013-03-22 16:22:00,73.9,49.0,29.93,SSW,194,5.0,7.0,41,0.00,,,0.00,weatherlink.com 1.10,2013-03-22 20:22:00,
2013-03-22 16:37:00,74.2,49.0,29.92,SSE,148,0.0,8.0,41,0.00,,,0.00,weatherlink.com 1.10,2013-03-22 20:37:00,
2013-03-22 16:52:00,74.4,51.0,29.93,SE,141,8.0,9.0,44,0.00,,,0.00,weatherlink.com 1.10,2013-03-22 20:52:00,
2013-03-22 17:07:00,74.2,52.0,29.93,ESE,110,7.0,12.0,46,0.00,,,0.00,weatherlink.com 1.10,2013-03-22 21:07:00,
2013-03-22 17:22:00,74.8,49.0,29.92,SE,136,5.0,9.0,41,0.00,,,0.00,weatherlink.com 1.10,2013-03-22 21:22:00,
2013-03-22 17:37:00,74.9,50.0,29.92,SE,143,6.0,8.0,41,0.00,,,0.00,weatherlink.com 1.10,2013-03-22 21:37:00,
2013-03-22 17:52:00,74.6,51.0,29.92,South,169,0.0,7.0,43,0.00,,,0.00,weatherlink.com 1.10,2013-03-22 21:52:00,
2013-03-22 18:07:00,74.7,51.0,29.93,ESE,113,5.0,9.0,44,0.00,,,0.00,weatherlink.com 1.10,2013-03-22 22:07:00,
2013-03-22 18:22:00,74.6,54.0,29.94,ESE,122,3.0,9.0,49,0.00,,,0.00,weatherlink.com 1.10,2013-03-22 22:22:00,
2013-03-22 18:37:00,72.1,50.0,29.96,ENE,64,1.0,8.0,46,0.00,,,0.00,weatherlink.com 1.10,2013-03-22 22:37:00,
2013-03-22 18:52:00,70.5,51.0,29.96,ESE,111,5.0,8.0,50,0.00,,,0.00,weatherlink.com 1.10,2013-03-22 22:52:00,
2013-03-22 19:07:00,69.8,51.0,29.97,ENE,73,1.0,10.0,52,0.00,,,0.00,weatherlink.com 1.10,2013-03-22 23:07:00,
2013-03-22 19:22:00,69.4,51.0,29.96,ESE,105,4.0,14.0,52,0.00,,,0.00,weatherlink.com 1.10,2013-03-22 23:22:00,
2013-03-22 19:37:00,69.0,52.0,29.97,East,101,8.0,13.0,55,0.00,,,0.00,weatherlink.com 1.10,2013-03-22 23:37:00,
2013-03-22 19:52:00,68.4,51.0,29.97,East,98,6.0,10.0,55,0.00,,,0.00,weatherlink.com 1.10,2013-03-22 23:52:00,
2013-03-22 20:07:00,67.2,56.0,29.98,SE,124,8.0,14.0,68,0.00,,,0.00,weatherlink.com 1.10,2013-03-23 00:07:00,
2013-03-22 20:22:00,65.7,56.0,29.99,ESE,113,7.0,13.0,71,0.00,,,0.00,weatherlink.com 1.10,2013-03-23 00:22:00,
2013-03-22 20:37:00,64.9,56.0,30.00,ENE,73,0.0,9.0,73,0.00,,,0.00,weatherlink.com 1.10,2013-03-23 00:37:00,
2013-03-22 20:52:00,64.3,56.0,30.00,East,98,0.0,4.0,74,0.00,,,0.00,weatherlink.com 1.10,2013-03-23 00:52:00,
2013-03-22 21:07:00,64.1,56.0,30.00,ENE,74,0.0,5.0,74,0.00,,,0.00,weatherlink.com 1.10,2013-03-23 01:07:00,
2013-03-22 21:22:00,63.7,56.0,30.00,ENE,61,0.0,1.0,75,0.00,,,0.00,weatherlink.com 1.10,2013-03-23 01:22:00,
2013-03-22 21:37:00,63.5,55.0,30.00,East,90,0.0,3.0,75,0.00,,,0.00,weatherlink.com 1.10,2013-03-23 01:37:00,
2013-03-22 21:52:00,63.4,56.0,30.00,East,101,0.0,0.0,76,0.00,,,0.00,weatherlink.com 1.10,2013-03-23 01:52:00,
2013-03-22 22:07:00,63.3,56.0,30.01,East,83,0.0,2.0,76,0.00,,,0.00,weatherlink.com 1.10,2013-03-23 02:07:00,
2013-03-22 22:22:00,63.3,56.0,30.01,East,80,0.0,2.0,76,0.00,,,0.00,weatherlink.com 1.10,2013-03-23 02:22:00,
2013-03-22 22:37:00,63.1,55.0,30.01,East,80,0.0,0.0,74,0.00,,,0.00,weatherlink.com 1.10,2013-03-23 02:37:00,
2013-03-22 22:52:00,62.9,53.0,30.01,East,80,0.0,0.0,71,0.00,,,0.00,weatherlink.com 1.10,2013-03-23 02:52:00,
2013-03-22 23:07:00,62.5,53.0,30.01,East,90,0.0,1.0,70,0.00,,,0.00,weatherlink.com 1.10,2013-03-23 03:07:00,
2013-03-22 23:22:00,62.3,52.0,30.02,East,85,0.0,0.0,70,0.00,,,0.00,weatherlink.com 1.10,2013-03-23 03:22:00,
2013-03-22 23:37:00,62.1,52.0,30.02,East,85,0.0,0.0,70,0.00,,,0.00,weatherlink.com 1.10,2013-03-23 03:37:00,
2013-03-22 23:52:00,61.8,52.0,30.01,East,85,0.0,0.0,70,0.00,,,0.00,weatherlink.com 1.10,2013-03-23 03:52:00,